CDT,Max TemperatureF,Mean TemperatureF,Min TemperatureF,Max Dew PointF,MeanDew PointF,Min DewpointF,Max Humidity, Mean Humidity, Min Humidity, Max Sea Level PressureIn, Mean Sea Level PressureIn, Min Sea Level PressureIn, Max VisibilityMiles, Mean VisibilityMiles, Min VisibilityMiles, Max Wind SpeedMPH, Mean Wind SpeedMPH, Max Gust SpeedMPH,PrecipitationIn, CloudCover, Events, WindDirDegrees
2013-10-1,78,66,53,56,54,48,90,65,41,29.98,29.86,29.80,10,10,10,21,10,28,0.00,0,,229
2013-10-2,75,60,44,50,41,31,95,58,22,30.12,30.04,29.95,10,10,7,10,2,,0.04,0,,136
2013-10-3,74,65,57,65,57,41,94,77,47,29.95,29.89,29.83,10,8,1,14,7,18,1.07,4,Rain-Thunderstorm,157
2013-10-4,60,58,56,59,57,56,96,96,94,30.02,29.95,29.88,4,1,0,14,6,21,0.10,8,Fog-Rain-Thunderstorm,66
2013-10-5,71,63,54,67,60,46,96,92,69,29.94,29.84,29.73,10,4,0,15,8,21,0.49,7,Fog-Rain-Thunderstorm,121
2013-10-6,55,48,41,46,40,35,94,73,50,29.77,29.73,29.67,10,10,10,10,5,,0.04,5,Rain,251
2013-10-7,64,54,42,45,42,36,94,72,34,30.07,29.90,29.73,10,10,4,13,7,20,0.00,3,Rain,285
2013-10-8,74,57,41,46,42,38,92,60,27,30.12,30.09,30.05,10,10,10,18,6,28,0.00,0,,184
2013-10-9,71,60,50,48,45,41,78,60,34,30.20,30.15,30.10,10,10,10,14,8,18,0.00,0,,179
2013-10-10,71,56,42,50,45,41,93,67,35,30.15,30.10,30.03,10,10,5,14,2,9,0.00,0,,147
2013-10-11,72,60,49,56,51,46,90,71,51,30.03,29.97,29.89,10,9,5,22,6,28,0.00,3,,140
2013-10-12,66,56,44,56,46,32,80,60,38,30.17,29.96,29.86,10,10,10,18,11,24,0.00,3,Thunderstorm,224
2013-10-13,59,48,36,39,34,30,90,63,33,30.42,30.34,30.17,10,10,5,13,4,18,0.00,0,,300
2013-10-14,60,46,31,41,37,31,98,73,47,30.42,30.31,30.11,10,10,10,15,4,21,0.00,0,,110
2013-10-15,58,51,44,54,46,40,93,82,65,30.10,29.85,29.72,10,8,3,17,10,24,0.34,7,Rain,186
2013-10-16,49,47,45,47,44,41,94,88,82,29.93,29.85,29.76,10,9,1,13,7,16,0.00,8,,275
2013-10-17,54,45,36,41,38,34,97,79,47,29.91,29.84,29.79,10,9,5,9,2,,0.00,4,,251
2013-10-18,45,41,37,41,37,34,92,79,66,29.93,29.86,29.78,10,10,10,16,5,24,0.00,6,,265
2013-10-19,50,40,31,39,34,29,94,81,45,29.89,29.78,29.70,10,10,5,20,4,28,0.02,4,Rain,232
2013-10-20,48,39,30,44,37,30,99,87,69,29.82,29.75,29.67,10,8,1,13,5,20,0.00,5,Rain,201
2013-10-21,43,38,29,38,26,20,85,67,50,29.93,29.88,29.74,10,10,10,18,11,26,0.00,7,,280
2013-10-22,44,34,23,28,25,21,90,68,47,29.96,29.93,29.89,10,10,10,9,5,20,0.00,2,,297
2013-10-23,40,31,23,28,25,22,94,75,52,30.02,29.97,29.95,10,10,10,10,2,,0.00,6,Snow,294
2013-10-24,43,35,28,27,24,21,83,64,43,30.28,30.15,30.02,10,10,10,13,6,21,0.00,7,,297
2013-10-25,50,37,25,28,25,22,88,58,38,30.32,30.16,29.84,10,10,10,22,8,33,0.00,3,,233
2013-10-26,49,44,38,34,28,23,73,52,39,30.06,29.91,29.75,10,10,10,24,13,29,0.00,5,,287
2013-10-27,53,42,30,30,27,25,83,59,33,30.04,29.96,29.86,10,10,10,16,5,22,0.00,0,,233
2013-10-28,41,38,35,31,28,26,82,67,58,30.41,30.30,30.05,10,10,10,15,9,24,0.00,6,,54
2013-10-29,53,44,34,39,34,26,83,69,53,30.40,30.25,30.11,10,10,7,12,6,,0.00,5,,91
2013-10-30,53,48,43,51,46,38,96,89,78,30.11,29.96,29.73,7,3,0,16,3,22,0.00,8,Fog,122
2013-10-31,56,48,41,55,50,38,96,93,85,29.71,29.44,29.31,10,5,0,14,3,20,0.59,8,Rain-Thunderstorm,274